When you browse on this site, cookies collect data to enhance your experience and personalize the content and advertising you see.
Visit our Privacy Policy to learn more. By continuing to use the site, you agree to this use of cookies and data.
  • In Latvia
  • List of Countries
  • For 7 days
  • Water Temperature
  • Weather Map
  • Weather Widgets
  • user-avatar
    Login

    Hourly Weather Zaplavskaya

    Today, 12 December, Thursday

    Time Temperature Precipitation Wind Pressure Humidity
    00:00 +3°C° 0 mm 2 mps 765 mmHg 92%
    01:00 +2°C° 0 mm 3 mps 765 mmHg 92%
    02:00 +1°C° 0 mm 3 mps 765 mmHg 92%
    03:00 +1°C° 0 mm 3 mps 764 mmHg 92%
    04:00 +1°C° 0 mm 3 mps 764 mmHg 92%
    05:00 +1°C° 0 mm 3 mps 764 mmHg 93%
    06:00 0°C° 0 mm 4 mps 764 mmHg 93%
    07:00 0°C° 0 mm 4 mps 764 mmHg 92%
    08:00 +1°C° 0 mm 4 mps 764 mmHg 91%
    09:00 +1°C° 0 mm 4 mps 765 mmHg 90%
    10:00 +1°C° 0 mm 4 mps 764 mmHg 88%
    11:00 +3°C° 0 mm 4 mps 764 mmHg 86%
    12:00 +3°C° 0 mm 4 mps 764 mmHg 83%
    13:00 +3°C° 0 mm 4 mps 763 mmHg 82%
    14:00 +3°C° 0 mm 5 mps 763 mmHg 80%
    15:00 +3°C° 0 mm 5 mps 763 mmHg 78%
    16:00 +2°C° 0 mm 5 mps 763 mmHg 80%
    17:00 +1°C° 0 mm 5 mps 763 mmHg 81%
    18:00 +1°C° 0 mm 5 mps 762 mmHg 83%
    19:00 +1°C° 0 mm 5 mps 762 mmHg 83%
    20:00 +1°C° 0 mm 5 mps 763 mmHg 84%
    21:00 +1°C° 0 mm 5 mps 763 mmHg 84%
    22:00 +1°C° 0 mm 5 mps 762 mmHg 84%
    23:00 +1°C° 0 mm 5 mps 762 mmHg 83%

    Tomorrow, 13 December, Friday

    Time Temperature Precipitation Wind Pressure Humidity
    00:00 +1°C° 0 mm 5 mps 761 mmHg 82%
    01:00 0°C° 0 mm 5 mps 761 mmHg 83%
    02:00 -1°C° 0 mm 6 mps 761 mmHg 84%
    03:00 -1°C° 0 mm 6 mps 761 mmHg 85%
    04:00 -1°C° 0 mm 6 mps 761 mmHg 85%
    05:00 -1°C° 0 mm 6 mps 761 mmHg 85%
    06:00 -1°C° 0 mm 7 mps 760 mmHg 85%
    07:00 -1°C° 0 mm 7 mps 761 mmHg 83%
    08:00 0°C° 0 mm 7 mps 761 mmHg 81%
    09:00 0°C° 0 mm 7 mps 761 mmHg 80%
    10:00 0°C° 0 mm 8 mps 761 mmHg 78%
    11:00 0°C° 0 mm 8 mps 760 mmHg 76%
    12:00 0°C° 0 mm 8 mps 760 mmHg 75%
    13:00 0°C° 0 mm 8 mps 760 mmHg 75%
    14:00 0°C° 0 mm 8 mps 760 mmHg 75%
    15:00 0°C° 0 mm 8 mps 760 mmHg 75%
    16:00 0°C° 0 mm 8 mps 760 mmHg 75%
    17:00 0°C° 0 mm 7 mps 759 mmHg 75%
    18:00 0°C° 0 mm 7 mps 759 mmHg 76%
    19:00 0°C° 0 mm 7 mps 759 mmHg 76%
    20:00 0°C° 0 mm 7 mps 759 mmHg 76%
    21:00 0°C° 0 mm 7 mps 760 mmHg 76%
    22:00 0°C° 0 mm 7 mps 759 mmHg 77%
    23:00 0°C° 0 mm 7 mps 759 mmHg 79%

    Day after tomorrow, 14 December, Saturday

    Time Temperature Precipitation Wind Pressure Humidity
    00:00 0°C° 0 mm 7 mps 759 mmHg 80%
    01:00 0°C° 0 mm 7 mps 760 mmHg 81%
    02:00 +1°C° 0 mm 6 mps 760 mmHg 81%
    03:00 +1°C° 0 mm 6 mps 760 mmHg 82%
    04:00 +1°C° 0.1 mm 6 mps 760 mmHg 83%
    05:00 +1°C° 0.1 mm 6 mps 759 mmHg 84%
    06:00 +2°C° 0.1 mm 6 mps 759 mmHg 86%
    07:00 +2°C° 0.7 mm 6 mps 760 mmHg 86%
    08:00 +2°C° 0.7 mm 7 mps 760 mmHg 87%
    09:00 +2°C° 0.7 mm 7 mps 760 mmHg 88%
    10:00 +2°C° 0.1 mm 6 mps 760 mmHg 85%
    11:00 +3°C° 0.1 mm 6 mps 760 mmHg 83%
    12:00 +4°C° 0.1 mm 6 mps 760 mmHg 80%
    13:00 +5°C° 0 mm 6 mps 760 mmHg 79%
    14:00 +6°C° 0 mm 5 mps 760 mmHg 78%
    15:00 +7°C° 0 mm 5 mps 760 mmHg 77%
    16:00 +6°C° 0 mm 5 mps 760 mmHg 80%
    17:00 +5°C° 0 mm 5 mps 760 mmHg 82%
    18:00 +5°C° 0 mm 5 mps 761 mmHg 85%
    19:00 +5°C° 0 mm 5 mps 761 mmHg 87%
    20:00 +5°C° 0 mm 4 mps 761 mmHg 88%
    21:00 +4°C° 0 mm 3 mps 761 mmHg 90%
    22:00 +4°C° 0.2 mm 3 mps 761 mmHg 91%
    23:00 +4°C° 0.2 mm 3 mps 761 mmHg 91%

    15 December, Sunday

    Time Temperature Precipitation Wind Pressure Humidity
    00:00 +5°C° 0.2 mm 3 mps 761 mmHg 92%
    01:00 +5°C° 0.2 mm 4 mps 761 mmHg 92%
    02:00 +5°C° 0.2 mm 5 mps 761 mmHg 92%
    03:00 +4°C° 0.2 mm 6 mps 761 mmHg 92%
    04:00 +4°C° 0 mm 6 mps 761 mmHg 91%
    05:00 +4°C° 0 mm 6 mps 761 mmHg 91%
    06:00 +5°C° 0 mm 5 mps 761 mmHg 91%
    07:00 +5°C° 0 mm 5 mps 762 mmHg 91%
    08:00 +5°C° 0 mm 4 mps 762 mmHg 91%
    09:00 +5°C° 0 mm 4 mps 762 mmHg 92%
    10:00 +5°C° 0 mm 4 mps 762 mmHg 88%
    11:00 +6°C° 0 mm 4 mps 762 mmHg 85%
    12:00 +7°C° 0 mm 4 mps 762 mmHg 82%
    13:00 +8°C° 0 mm 3 mps 762 mmHg 80%
    14:00 +9°C° 0 mm 3 mps 762 mmHg 78%
    15:00 +9°C° 0 mm 2 mps 762 mmHg 77%
    16:00 +8°C° 0 mm 2 mps 762 mmHg 80%
    17:00 +7°C° 0 mm 2 mps 763 mmHg 84%
    18:00 +7°C° 0 mm 2 mps 763 mmHg 87%
    19:00 +7°C° 0 mm 1 mps 763 mmHg 88%
    20:00 +7°C° 0 mm 1 mps 763 mmHg 88%
    21:00 +7°C° 0 mm 1 mps 763 mmHg 88%
    22:00 +7°C° 0 mm 1 mps 764 mmHg 88%
    23:00 +7°C° 0 mm 1 mps 764 mmHg 87%

    16 December, Monday

    Time Temperature Precipitation Wind Pressure Humidity
    00:00 +6°C° 0 mm 0 mps 764 mmHg 87%
    01:00 +6°C° 0.1 mm 0 mps 764 mmHg 89%
    02:00 +7°C° 0.1 mm 1 mps 764 mmHg 90%
    03:00 +7°C° 0.1 mm 1 mps 764 mmHg 91%
    04:00 +7°C° 0 mm 1 mps 765 mmHg 92%
    05:00 +7°C° 0 mm 1 mps 765 mmHg 92%
    06:00 +7°C° 0 mm 1 mps 765 mmHg 93%
    07:00 +7°C° 0 mm 1 mps 766 mmHg 93%
    08:00 +7°C° 0 mm 1 mps 766 mmHg 93%
    09:00 +7°C° 0 mm 1 mps 767 mmHg 93%
    10:00 +8°C° 0 mm 1 mps 767 mmHg 87%
    11:00 +9°C° 0 mm 1 mps 767 mmHg 82%
    12:00 +10°C° 0 mm 1 mps 767 mmHg 76%
    13:00 +10°C° 0 mm 1 mps 767 mmHg 74%
    14:00 +10°C° 0 mm 1 mps 767 mmHg 72%
    15:00 +10°C° 0 mm 1 mps 768 mmHg 71%
    16:00 +9°C° 0 mm 1 mps 768 mmHg 74%
    17:00 +8°C° 0 mm 1 mps 768 mmHg 77%
    18:00 +8°C° 0 mm 1 mps 768 mmHg 80%
    19:00 +6°C° 0 mm 0 mps 768 mmHg 81%
    20:00 +6°C° 0 mm 0 mps 769 mmHg 82%
    21:00 +5°C° 0 mm 0 mps 769 mmHg 82%
    22:00 +5°C° 0 mm 0 mps 769 mmHg 83%
    23:00 +6°C° 0 mm 1 mps 769 mmHg 83%

    17 December, Tuesday

    Time Temperature Precipitation Wind Pressure Humidity
    00:00 +6°C° 0 mm 1 mps 769 mmHg 84%
    01:00 +6°C° 0 mm 1 mps 769 mmHg 85%
    02:00 +5°C° 0 mm 1 mps 769 mmHg 87%
    03:00 +5°C° 0 mm 1 mps 769 mmHg 88%
    04:00 +5°C° 0 mm 1 mps 769 mmHg 90%
    05:00 +5°C° 0 mm 1 mps 769 mmHg 91%
    06:00 +5°C° 0 mm 1 mps 769 mmHg 92%
    07:00 +5°C° 0 mm 1 mps 769 mmHg 93%
    08:00 +5°C° 0 mm 1 mps 769 mmHg 94%
    09:00 +5°C° 0 mm 1 mps 769 mmHg 95%
    10:00 +6°C° 0 mm 1 mps 769 mmHg 92%
    11:00 +6°C° 0 mm 1 mps 769 mmHg 90%
    12:00 +6°C° 0 mm 2 mps 769 mmHg 87%
    13:00 +7°C° 0 mm 2 mps 768 mmHg 87%
    14:00 +7°C° 0 mm 2 mps 768 mmHg 86%
    15:00 +7°C° 0 mm 2 mps 767 mmHg 86%
    16:00 +7°C° 0 mm 2 mps 767 mmHg 88%
    17:00 +7°C° 0 mm 1 mps 767 mmHg 91%
    18:00 +6°C° 0 mm 1 mps 767 mmHg 93%
    19:00 +6°C° 0 mm 1 mps 767 mmHg 93%
    20:00 +6°C° 0 mm 1 mps 767 mmHg 94%
    21:00 +6°C° 0 mm 1 mps 767 mmHg 94%
    22:00 +5°C° 0 mm 2 mps 767 mmHg 94%
    23:00 +5°C° 0 mm 2 mps 767 mmHg 94%
    Show more